Location: ??
(34.9170°N, 135.5016°E)
Time: 12:36:36
(UTC+00:00)

Cosmos 1484 Rocket - Pass Details

Date: 29 October 2020
Orbit: 504 x 560 km, 97.4° (Epoch: 26 November)

Event Time Altitude Azimuth Distance (km) Brightness Sun altitude
Rises 19:38:08 0° 9° (N) 2,672 6.4 -20.8°
Reaches altitude 10° 19:40:16 10° 7° (N) 1,769 5.4 -20.3°
Maximum altitude 19:44:03 72° 284° (WNW) 548 2.5 -19.6°
Drops below altitude 10° 19:47:46 10° 199° (SSW) 1,728 5.2 -18.8°
Sets 19:49:50 0° 197° (SSW) 2,603 6.1 -18.4°
